Data for 10/01/2018

Time Sea-Level Adjusted Pressure Absolute Pressure Temperature Relative Humidity Dew Point   
(mb) (inHg) (mb) (inHg) (C) (F) (%) (C) (F)
00:05 1018 30.06 848 25.04 0.9 33.6 90 -0.6 30.9
00:10 1018 30.06 848 25.04 0.6 33 90 -0.9 30.3
00:15 1018 30.06 848 25.04 0.3 32.6 90 -1.1 30
00:20 1018 30.06 848 25.04 -0.1 31.9 91 -1.3 29.6
00:25 1018 30.06 848 25.04 -0.1 31.9 92 -1.2 29.8
00:30 1019 30.09 848 25.04 0.1 32.2 92 -1 30.1
00:35 1018 30.06 848 25.04 0.2 32.3 92 -0.9 30.3
00:40 1018 30.06 848 25.04 0.1 32.2 92 -1.1 30.1
00:45 1018 30.06 848 25.04 -0 31.9 92 -1.2 29.8
00:50 1018 30.06 847 25.01 -0.2 31.7 92 -1.3 29.7
00:55 1018 30.06 847 25.01 -0.2 31.6 92 -1.3 29.6
01:00 1018 30.06 848 25.04 -0.1 31.8 93 -1.1 30
01:05 1018 30.06 848 25.04 0.4 32.8 93 -0.6 30.9
01:10 1018 30.06 847 25.01 1 33.7 93 -0.1 31.8
01:15 1018 30.06 847 25.01 1 33.8 92 -0.2 31.7
01:20 1018 30.06 848 25.04 0.8 33.5 92 -0.4 31.3
01:25 1018 30.06 848 25.04 0.9 33.6 92 -0.3 31.4
01:30 1018 30.06 848 25.04 1 33.9 92 -0.2 31.6
01:35 1018 30.06 848 25.04 1.1 34 91 -0.2 31.7
01:40 1019 30.09 848 25.04 1.1 34 91 -0.3 31.5
01:45 1018 30.06 848 25.04 1.1 33.9 91 -0.3 31.5
01:50 1018 30.06 848 25.04 1.1 34 90 -0.3 31.4
01:55 1018 30.06 848 25.04 1.1 33.9 91 -0.3 31.4
02:00 1018 30.06 848 25.04 1.2 34.2 90 -0.2 31.6
02:05 1018 30.06 848 25.04 1.4 34.4 90 -0.1 31.8
02:10 1018 30.06 848 25.04 1.4 34.4 90 -0.1 31.8
02:15 1018 30.06 848 25.04 1.4 34.5 90 -0.1 31.9
02:20 1018 30.06 848 25.04 1.4 34.5 90 -0.1 31.8
02:25 1018 30.06 848 25.04 1.3 34.3 90 -0.2 31.7
02:30 1018 30.06 848 25.04 1.1 34 90 -0.4 31.3
02:35 1019 30.09 848 25.04 1.1 33.9 90 -0.3 31.4
02:40 1018 30.06 848 25.04 1.2 34.1 90 -0.2 31.6
02:45 1019 30.09 848 25.04 1.2 34.2 90 -0.2 31.7
02:50 1019 30.09 848 25.04 1.4 34.5 90 -0.2 31.7
02:55 1019 30.09 848 25.04 1.4 34.6 89 -0.1 31.7
03:00 1019 30.09 848 25.04 1.3 34.3 89 -0.3 31.5
03:05 1019 30.09 848 25.04 1.2 34.2 90 -0.3 31.4
03:10 1019 30.09 848 25.04 1.1 34 90 -0.4 31.3
03:15 1019 30.09 848 25.04 0.9 33.7 90 -0.5 31.1
03:20 1019 30.09 848 25.04 0.9 33.6 90 -0.6 31
03:25 1018 30.06 848 25.04 0.7 33.2 89 -0.8 30.5
03:30 1018 30.06 848 25.04 0.3 32.5 90 -1.2 29.8
03:35 1018 30.06 848 25.04 -0 32 91 -1.3 29.7
03:40 1019 30.09 848 25.04 0.3 32.5 92 -0.9 30.3
03:45 1019 30.09 848 25.04 0.4 32.6 91 -0.9 30.4
03:50 1019 30.09 848 25.04 0.5 32.9 92 -0.7 30.7
03:55 1019 30.09 848 25.04 0.8 33.4 92 -0.4 31.2
04:00 1019 30.09 848 25.04 0.8 33.5 91 -0.5 31.1
04:05 1019 30.09 848 25.04 0.7 33.3 91 -0.6 31
04:10 1019 30.09 848 25.04 0.8 33.4 91 -0.5 31.1
04:15 1019 30.09 848 25.04 0.8 33.5 91 -0.5 31.2
04:20 1019 30.09 848 25.04 0.8 33.5 91 -0.5 31.1
04:25 1019 30.09 848 25.04 0.7 33.2 91 -0.7 30.7
04:30 1019 30.09 848 25.04 0.4 32.7 91 -1 30.2
04:35 1019 30.09 848 25.04 0.4 32.6 91 -0.9 30.4
04:40 1019 30.09 848 25.04 0.4 32.7 91 -1 30.2
04:45 1019 30.09 848 25.04 0.2 32.4 91 -1.1 30.1
04:50 1019 30.09 848 25.04 0.2 32.4 92 -1 30.3
04:55 1019 30.09 848 25.04 0.6 33 93 -0.5 31.1
05:00 1019 30.09 848 25.04 1 33.8 92 -0.2 31.7
05:05 1019 30.09 848 25.04 0.9 33.6 92 -0.2 31.6
05:10 1019 30.09 848 25.04 1.1 34 92 -0.1 31.9
05:15 1019 30.09 848 25.04 1.3 34.4 92 0.1 32.2
05:20 1019 30.09 848 25.04 1.5 34.8 91 0.3 32.5
05:25 1019 30.09 848 25.04 1.5 34.7 90 0.1 32.2
05:30 1019 30.09 848 25.04 1.2 34.1 90 -0.3 31.4
05:35 1019 30.09 848 25.04 0.8 33.5 90 -0.6 30.9
05:40 1019 30.09 848 25.04 0.6 33.1 90 -0.8 30.6
05:45 1019 30.09 848 25.04 0.5 33 91 -0.7 30.7
05:50 1018 30.06 848 25.04 0.7 33.2 90 -0.7 30.7
05:55 1018 30.06 848 25.04 0.6 33.1 91 -0.8 30.6
06:00 1018 30.06 848 25.04 0.8 33.4 90 -0.6 30.9
06:05 1018 30.06 848 25.04 0.9 33.5 90 -0.6 30.9
06:10 1018 30.06 848 25.04 0.9 33.6 90 -0.6 30.9
06:15 1018 30.06 848 25.04 1 33.7 89 -0.6 30.9
06:20 1018 30.06 848 25.04 0.6 33.2 90 -0.9 30.4
06:25 1018 30.06 848 25.04 0.6 33.2 90 -0.8 30.6
06:30 1019 30.09 848 25.04 0.9 33.6 90 -0.6 31
06:35 1019 30.09 848 25.04 1.1 33.9 90 -0.4 31.3
06:40 1019 30.09 848 25.04 1.5 34.7 89 -0.2 31.6
06:45 1019 30.09 848 25.04 2.1 35.7 86 -0 32
06:50 1019 30.09 848 25.04 2.3 36.1 85 0 32.1
06:55 1019 30.09 848 25.04 2.4 36.3 85 0 32
07:00 1019 30.09 848 25.04 2.1 35.7 85 -0.3 31.5
07:05 1019 30.09 848 25.04 1.6 35 87 -0.3 31.5
07:10 1019 30.09 848 25.04 2.3 36.1 84 -0.1 31.8
07:15 1018 30.06 848 25.04 2.6 36.7 84 0.2 32.3
07:20 1018 30.06 848 25.04 2.8 37 83 0.2 32.4
07:25 1018 30.06 848 25.04 3.2 37.7 81 0.2 32.4
07:30 1018 30.06 848 25.04 3.3 37.9 81 0.3 32.5
07:35 1018 30.06 848 25.04 3.7 38.6 79 0.3 32.5
07:40 1018 30.06 848 25.04 3.7 38.7 81 0.7 33.2
07:45 1018 30.06 848 25.04 3.6 38.4 80 0.5 32.9
07:50 1018 30.06 848 25.04 3.5 38.4 81 0.6 33.1
07:55 1019 30.09 848 25.04 3.8 38.9 80 0.7 33.3
08:00 1019 30.09 848 25.04 4.3 39.7 80 1.1 33.9
08:05 1019 30.09 848 25.04 4.6 40.2 78 1.1 34
08:10 1019 30.09 848 25.04 5.1 41.1 77 1.3 34.4
08:15 1019 30.09 848 25.04 5.9 42.5 72 1.2 34.1
08:20 1019 30.09 848 25.04 6.3 43.3 73 1.7 35.1
08:25 1019 30.09 848 25.04 6.7 44.1 71 1.8 35.3
08:30 1019 30.09 848 25.04 7.4 45.4 68 1.9 35.4
08:35 1019 30.09 848 25.04 8.1 46.6 67 2.4 36.3
08:40 1019 30.09 848 25.04 8.5 47.2 65 2.3 36.1
08:45 1019 30.09 848 25.04 7.5 45.5 74 3.2 37.8
08:50 1019 30.09 848 25.04 6.1 42.9 77 2.4 36.2
08:55 1019 30.09 848 25.04 5.8 42.4 77 2 35.6
09:00 1019 30.09 848 25.04 5.8 42.5 77 2.1 35.7
09:05 1019 30.09 848 25.04 6.4 43.6 75 2.2 36
09:10 1019 30.09 849 25.07 5.8 42.4 76 1.8 35.2
09:15 1019 30.09 849 25.07 6.6 43.8 72 2 35.5
09:20 1019 30.09 848 25.04 6.7 44 74 2.5 36.4
09:25 1019 30.09 849 25.07 6.4 43.6 76 2.5 36.5
09:30 1019 30.09 849 25.07 7 44.6 73 2.5 36.4
09:35 1019 30.09 849 25.07 6.9 44.4 72 2.2 36
09:40 1019 30.09 849 25.07 7.3 45.1 71 2.3 36.2
09:45 1019 30.09 849 25.07 6.8 44.2 73 2.3 36.2
09:50 1019 30.09 849 25.07 6.9 44.4 74 2.5 36.5
09:55 1019 30.09 849 25.07 7.5 45.6 70 2.4 36.2
10:00 1019 30.09 848 25.04 7.6 45.7 69 2.3 36.2
10:05 1019 30.09 848 25.04 8.4 47.1 67 2.6 36.6
10:10 1019 30.09 848 25.04 8.9 48.1 63 2.3 36.1
10:15 1019 30.09 848 25.04 9.3 48.7 61 2.3 36.1
10:20 1019 30.09 848 25.04 9.7 49.5 62 2.9 37.2
10:25 1019 30.09 848 25.04 10.7 51.3 56 2.3 36.2
10:30 1019 30.09 848 25.04 11.3 52.4 55 2.8 37
10:35 1019 30.09 848 25.04 11.4 52.6 55 2.9 37.2
10:40 1019 30.09 848 25.04 11.6 53 54 2.6 36.8
10:45 1019 30.09 848 25.04 12.4 54.3 48 1.9 35.4
10:50 1019 30.09 848 25.04 12.3 54.2 51 2.5 36.4
10:55 1019 30.09 848 25.04 12.6 54.6 51 2.7 36.9
11:00 1019 30.09 848 25.04 12.8 55.1 46 1.6 34.8
11:05 1019 30.09 848 25.04 12.7 54.8 47 1.8 35.3
11:10 1019 30.09 848 25.04 12 53.6 50 2 35.6
11:15 1019 30.09 848 25.04 12.6 54.6 45 1.2 34.1
11:20 1019 30.09 848 25.04 12.8 55 47 1.8 35.3
11:25 1019 30.09 848 25.04 13.6 56.5 46 2.1 35.9
11:30 1019 30.09 848 25.04 14.2 57.6 44 2.1 35.8
11:35 1019 30.09 848 25.04 14.1 57.3 45 2.3 36.2
11:40 1019 30.09 848 25.04 13.2 55.7 44 1.2 34.2
11:45 1019 30.09 848 25.04 13.5 56.2 40 0.2 32.4
11:50 1018 30.06 848 25.04 14.3 57.7 42 1.6 34.9
11:55 1018 30.06 848 25.04 14.7 58.4 41 1.7 35.1
12:00 1018 30.06 848 25.04 15.1 59.1 39 1.1 34.1
12:05 1018 30.06 847 25.01 14.8 58.7 39 1.2 34.2
12:10 1018 30.06 847 25.01 14.9 58.8 37 0.5 32.8
12:15 1018 30.06 847 25.01 15.9 60.6 37 1.5 34.6
12:20 1018 30.06 847 25.01 15.6 60.1 40 2.1 35.7
12:25 1018 30.06 847 25.01 15.4 59.8 38 1.3 34.4
12:30 1018 30.06 847 25.01 15.9 60.6 37 1.5 34.7
12:35 1018 30.06 847 25.01 15.7 60.3 38 1.6 34.9
12:40 1018 30.06 847 25.01 15.1 59.1 39 1.2 34.1
12:45 1018 30.06 847 25.01 15.2 59.3 37 0.8 33.4
12:50 1018 30.06 847 25.01 16.1 61 35 0.6 33.2
12:55 1018 30.06 847 25.01 15.9 60.6 35 0.7 33.2
13:00 1018 30.06 847 25.01 16.6 61.8 33 0.5 33
13:05 1018 30.06 847 25.01 17.1 62.8 33 0.7 33.2
13:10 1018 30.06 847 25.01 17.6 63.7 31 0.6 33.1
13:15 1017 30.03 847 25.01 17 62.5 33 0.8 33.4
13:20 1017 30.03 847 25.01 16.3 61.3 35 0.7 33.3
13:25 1017 30.03 847 25.01 15.9 60.6 35 0.7 33.3
13:30 1017 30.03 847 25.01 16.3 61.4 35 1 33.9
13:35 1017 30.03 846 24.98 16.9 62.3 31 -0.3 31.4
13:40 1017 30.03 846 24.98 17.4 63.3 30 -0.5 31.2
13:45 1017 30.03 846 24.98 17.4 63.3 30 -0.1 31.8
13:50 1017 30.03 846 24.98 18.3 64.9 27 -1.1 30
13:55 1017 30.03 846 24.98 18.8 65.8 26 -1.3 29.7
14:00 1017 30.03 846 24.98 19 66.2 27 -0.4 31.3
14:05 1017 30.03 846 24.98 19.6 67.3 25 -0.5 31
14:10 1017 30.03 846 24.98 18.8 65.8 27 -0.7 30.8
14:15 1017 30.03 846 24.98 19.4 67 25 -0.9 30.4
14:20 1017 30.03 846 24.98 20 67.9 24 -1.1 30
14:25 1017 30.03 846 24.98 19.8 67.7 22 -2.2 28
14:30 1017 30.03 846 24.98 18.7 65.6 22 -3.2 26.3
14:35 1017 30.03 846 24.98 18.2 64.7 23 -3.2 26.3
14:40 1017 30.03 846 24.98 17.8 64.1 24 -3.1 26.5
14:45 1016 30 846 24.98 18 64.5 24 -2.7 27.1
14:50 1016 30 846 24.98 18.3 64.9 24 -2.3 27.9
14:55 1016 30 846 24.98 18.3 65 24 -2.2 28
15:00 1016 30 846 24.98 18.4 65.2 24 -2.3 27.8
15:05 1016 30 846 24.98 18.6 65.5 25 -1.8 28.7
15:10 1016 30 846 24.98 18.7 65.7 23 -2.5 27.5
15:15 1016 30 845 24.95 18.7 65.7 23 -2.8 27
15:20 1016 30 845 24.95 18.6 65.4 22 -3.3 26.1
15:25 1016 30 845 24.95 18.2 64.8 23 -3.2 26.3
15:30 1016 30 845 24.95 18.4 65 24 -2.2 28.1
15:35 1016 30 845 24.95 18.6 65.4 26 -1.2 29.8
15:40 1016 30 845 24.95 18.9 66 24 -1.9 28.5
15:45 1016 30 845 24.95 19.2 66.5 24 -1.9 28.5
15:50 1016 30 845 24.95 19.3 66.7 23 -2.1 28.3
15:55 1016 30 845 24.95 19.1 66.4 25 -1.2 29.9
16:00 1016 30 845 24.95 18.8 65.8 24 -2.2 28.1
16:05 1016 30 845 24.95 18.7 65.7 25 -1.6 29.2
16:10 1016 30 845 24.95 18.7 65.6 26 -1.1 30.1
16:15 1016 30 845 24.95 18.4 65.2 28 -0.4 31.3
16:20 1016 30 845 24.95 18.3 64.9 28 -0.3 31.5
16:25 1016 30 845 24.95 18.3 65 25 -1.9 28.6
16:30 1016 30 845 24.95 18.2 64.7 25 -1.8 28.8
16:35 1016 30 845 24.95 18.1 64.5 26 -1.5 29.2
16:40 1016 30 845 24.95 18.1 64.7 28 -0.6 30.9
16:45 1016 30 845 24.95 18.1 64.6 27 -1 30.3
16:50 1016 30 845 24.95 17.8 64 27 -1.5 29.2
16:55 1016 30 845 24.95 17.6 63.6 27 -1.4 29.6
17:00 1016 30 845 24.95 17.4 63.4 29 -0.6 31
17:05 1016 30 845 24.95 17.4 63.3 29 -0.5 31.1
17:10 1016 30 845 24.95 17.2 63 28 -1.4 29.5
17:15 1016 30 845 24.95 17 62.7 31 -0.1 31.9
17:20 1016 30 845 24.95 16.7 62 34 0.9 33.7
17:25 1016 30 845 24.95 16.3 61.3 37 1.8 35.2
17:30 1016 30 845 24.95 16.2 61.2 34 0.6 33
17:35 1016 30 845 24.95 16.2 61.1 31 -0.7 30.8
17:40 1016 30 845 24.95 16.3 61.4 34 0.4 32.8
17:45 1016 30 845 24.95 16.4 61.5 32 -0.3 31.4
17:50 1016 30 845 24.95 16.3 61.4 36 1.5 34.6
17:55 1016 30 845 24.95 15.8 60.4 41 2.5 36.5
18:00 1016 30 845 24.95 15.3 59.5 45 3.6 38.4
18:05 1016 30 845 24.95 14.9 58.8 47 3.8 38.8
18:10 1016 30 845 24.95 14.4 58 49 4 39.3
18:15 1016 30 845 24.95 14 57.3 50 3.8 38.8
18:20 1016 30 845 24.95 14 57.2 42 1.4 34.5
18:25 1016 30 845 24.95 14.4 57.8 45 2.8 37
18:30 1016 30 845 24.95 14.2 57.5 42 1.5 34.6
18:35 1016 30 845 24.95 14 57.2 48 3.2 37.8
18:40 1016 30 845 24.95 13.4 56.2 50 3.3 38
18:45 1016 30 845 24.95 13.1 55.7 53 3.7 38.7
18:50 1016 30 845 24.95 13 55.3 49 2.5 36.5
18:55 1016 30 845 24.95 13.1 55.6 47 2.1 35.8
19:00 1016 30 845 24.95 13.2 55.8 45 1.6 34.8
19:05 1016 30 845 24.95 13.2 55.8 48 2.5 36.5
19:10 1016 30 845 24.95 12.9 55.2 42 0.4 32.6
19:15 1016 30 845 24.95 13.4 56.2 41 0.7 33.2
19:20 1016 30 845 24.95 13.3 55.9 45 1.7 35
19:25 1016 30 845 24.95 12.9 55.3 47 1.9 35.4
19:30 1016 30 845 24.95 12.7 54.9 47 1.8 35.3
19:35 1016 30 845 24.95 12.5 54.5 46 1.4 34.5
19:40 1016 30 845 24.95 12.6 54.7 44 0.7 33.2
19:45 1016 30 845 24.95 12.8 55.1 46 1.7 35
19:50 1016 30 845 24.95 12.6 54.7 44 0.8 33.4
19:55 1016 30 845 24.95 12.8 55.1 43 0.5 32.9
20:00 1016 30 845 24.95 12.9 55.3 43 0.8 33.5
20:05 1016 30 845 24.95 12.5 54.6 46 1.2 34.1
20:10 1016 30 845 24.95 12.1 53.8 47 1.1 34
20:15 1016 30 845 24.95 12.1 53.8 46 1 33.8
20:20 1016 30 845 24.95 12.2 54 45 0.6 33.1
20:25 1016 30 845 24.95 12.4 54.4 43 0.4 32.7
20:30 1016 30 845 24.95 12.6 54.7 43 0.4 32.7
20:35 1016 30 845 24.95 12.6 54.7 43 0.5 33
20:40 1016 30 845 24.95 12.4 54.3 42 0 32.1
20:45 1016 30 845 24.95 12.5 54.5 43 0.2 32.4
20:50 1016 30 845 24.95 12.5 54.6 42 0 32.1
20:55 1016 30 845 24.95 12.4 54.4 43 0.2 32.4
21:00 1016 30 845 24.95 12.3 54.1 44 0.5 32.9
21:05 1016 30 845 24.95 12.2 53.9 45 0.6 33.1
21:10 1016 30 845 24.95 12 53.7 46 0.7 33.3
21:15 1016 30 845 24.95 11.9 53.5 45 0.4 32.8
21:20 1016 30 845 24.95 11.9 53.4 44 0 32.1
21:25 1016 30 845 24.95 12.3 54.1 41 -0.4 31.2
21:30 1016 30 845 24.95 12.6 54.6 41 -0.3 31.5
21:35 1016 30 845 24.95 12.5 54.5 42 0.1 32.2
21:40 1016 30 845 24.95 12.5 54.4 40 -0.6 31
21:45 1016 30 845 24.95 12.4 54.4 43 0.3 32.5
21:50 1016 30 845 24.95 12.2 53.9 44 0.2 32.4
21:55 1016 30 845 24.95 12.3 54.1 40 -1 30.2
22:00 1016 30 845 24.95 12.6 54.7 41 -0.3 31.4
22:05 1016 30 845 24.95 12.4 54.4 41 -0.4 31.2
22:10 1016 30 845 24.95 12.3 54.2 41 -0.4 31.2
22:15 1016 30 845 24.95 12.4 54.4 41 -0.4 31.2
22:20 1016 30 845 24.95 12.3 54.1 41 -0.6 31
22:25 1016 30 845 24.95 12.4 54.2 41 -0.5 31.2
22:30 1016 30 845 24.95 12.2 54 43 0.1 32.2
22:35 1016 30 845 24.95 12 53.6 43 -0.2 31.7
22:40 1016 30 845 24.95 12 53.6 43 -0.2 31.7
22:45 1016 30 845 24.95 12 53.6 43 -0.2 31.7
22:50 1016 30 845 24.95 12 53.6 43 -0.1 31.8
22:55 1016 30 845 24.95 12.1 53.8 41 -0.8 30.6
23:00 1016 30 845 24.95 12.3 54.2 42 -0.1 31.8
23:05 1016 30 845 24.95 12.1 53.8 42 -0.5 31.2
23:10 1016 30 845 24.95 12.2 53.9 42 -0.2 31.6
23:15 1016 30 845 24.95 12.2 54 41 -0.5 31.2
23:20 1016 30 845 24.95 12.1 53.8 43 -0.1 31.8
23:25 1016 30 845 24.95 11.9 53.4 44 0.2 32.3
23:30 1016 30 845 24.95 11.7 53.1 44 -0 31.9
23:35 1016 30 845 24.95 11.7 53.1 45 0.3 32.5
23:40 1016 30 845 24.95 11.6 52.8 46 0.6 33
23:45 1015 29.97 845 24.95 11.5 52.6 47 0.6 33.1
23:50 1015 29.97 845 24.95 11.4 52.5 46 0.1 32.2
23:55 1015 29.97 845 24.95 11.5 52.8 46 0.4 32.8
24:00 1015 29.97 845 24.95 11.4 52.6 48 0.8 33.4